Bismarck, ND

6:43 PM CST on January 18, 2018 (GMT -0600)
Bismarck Municipal

Weather History for KBIS - January, 2013

Change the Weather History Date:

Tuesday, January 1, 2013

  Actual Average Record
Temperature  
Mean Temperature 15 °F 13 °F  
Max Temperature 29 °F 23 °F 56 °F (1998)
Min Temperature 0 °F 2 °F -41 °F (1887)
Degree Days  
Heating Degree Days 50 52  
Month to date heating degree days 50 52  
Since 1 July heating degree days 3579 3552  
Cooling Degree Days 0 0  
Month to date cooling degree days 0 0  
Year to date cooling degree days 0 0  
Moisture  
Dew Point 9 °F    
Average Humidity 82    
Maximum Humidity 96    
Minimum Humidity 67    
Precipitation  
Precipitation 0.03 in 0.02 in 0.52 in (1897)
Month to date precipitation 0.03 0.02  
Year to date precipitation 0.03 0.02  
Snow  
Snow 0.30 in - 4.90 in (1999)
Month to date snowfall 0.3  
Since 1 July snowfall 22.5  
Snow Depth 7.00 in    
Sea Level Pressure  
Sea Level Pressure 30.08 in    
Wind  
Wind Speed 5 mph (WSW)    
Max Wind Speed 17 mph    
Max Gust Speed 23 mph    
Visibility 6 miles    
Events Fog , Snow    
T = Trace of Precipitation, MM = Missing Value Source: NWS Daily Summary

Daily Weather History Graph

Daily Weather History Graph

Search for Another Location

Airport or City:

Trip Planner

Search our weather history database for the weather conditions in past years. The results will help you decide how hot, cold, wet, or windy it might be!

Date:

Astronomy

Jan. 01, 2013 Rise Set
Actual Time 8:27 AM CST 5:05 PM CST
Civil Twilight 7:52 AM CST 5:40 PM CST
Nautical Twilight 7:14 AM CST 6:19 PM CST
Astronomical Twilight 6:37 AM CST 6:56 PM CST
Moon 9:57 PM CST (1/1) 10:24 AM CST (1/1)
Length of Visible Light 9h 48m
Length of Day
8h 37m
Waning Gibbous, 83% of the Moon is Illuminated
Jan 1
Waning Gibbous
Jan 4
Last Quarter
Jan 11
New
Jan 18
First Quarter
Jan 26
Full

Hourly Weather History & Observations

Time (CST) Temp. Windchill Dew Point Humidity Pressure Visibility Wind Dir Wind Speed Gust Speed Precip Events Conditions
12:52 AM 1.9 °F -5.6 °F -2.0 °F 83% 30.26 in 10.0 mi ESE 3.5 mph - N/A   Overcast
1:52 AM 1.9 °F - -2.0 °F 83% 30.24 in 10.0 mi Calm Calm - N/A   Overcast
2:52 AM 3.0 °F -4.4 °F -0.0 °F 87% 30.25 in 10.0 mi East 3.5 mph - N/A   Overcast
3:52 AM 3.9 °F - 1.0 °F 88% 30.25 in 10.0 mi Calm Calm - N/A   Overcast
4:52 AM 5.0 °F - 1.0 °F 84% 30.24 in 10.0 mi Calm Calm - N/A   Overcast
5:17 AM 5.0 °F - 1.0 °F 84% 30.11 in 10.0 mi Calm Calm - N/A   Overcast
5:31 AM 5.0 °F -2.1 °F 1.0 °F 84% 30.10 in 10.0 mi East 3.5 mph - N/A   Overcast
5:52 AM 3.9 °F - 1.0 °F 88% 30.22 in 10.0 mi Calm Calm - N/A   Overcast
6:00 AM 3.9 °F - 1.0 °F 88% 30.10 in 10.0 mi Calm Calm - N/A   Overcast
6:52 AM 5.0 °F - 3.0 °F 92% 30.22 in 6.0 mi Calm Calm - N/A   Overcast
7:12 AM 6.1 °F - 3.9 °F 91% 30.09 in 2.0 mi Calm Calm - N/A   Overcast
7:23 AM 6.1 °F - 3.9 °F 91% 30.09 in 1.0 mi Calm Calm - N/A   Overcast
7:30 AM 6.1 °F - 3.9 °F 91% 30.09 in 2.0 mi Calm Calm - N/A   Overcast
7:47 AM 6.8 °F - 5.0 °F 92% 30.08 in 0.8 mi Calm Calm - N/A   Mist
7:52 AM 6.1 °F - 5.0 °F 95% 30.22 in 0.8 mi Calm Calm - N/A   Mist
8:02 AM 6.1 °F - 5.0 °F 95% 30.07 in 0.2 mi Calm Calm - N/A Fog Light Freezing Fog
8:27 AM 7.0 °F - 6.1 °F 96% 30.07 in 0.2 mi Calm Calm - N/A Fog Light Freezing Fog
8:52 AM 8.6 °F - 6.8 °F 92% 30.07 in 0.2 mi Calm Calm - N/A Fog Light Freezing Fog
9:33 AM 8.1 °F 1.4 °F 7.0 °F 95% 30.06 in 0.2 mi South 3.5 mph - N/A Fog Light Freezing Fog
9:42 AM 9.0 °F - 7.0 °F 92% 30.06 in 0.5 mi Calm Calm - N/A Fog Light Freezing Fog
9:52 AM 10.0 °F - 8.1 °F 92% 30.19 in 0.8 mi Calm Calm - N/A   Overcast
9:58 AM 10.0 °F - 7.0 °F 87% 30.06 in 0.2 mi Calm Calm - N/A Fog Light Freezing Fog
10:18 AM 10.0 °F 1.8 °F 8.1 °F 92% 30.06 in 0.8 mi West 4.6 mph - N/A   Mist
10:43 AM 10.9 °F 1.4 °F 8.1 °F 88% 30.06 in 1.5 mi WSW 5.8 mph - N/A   Overcast
10:52 AM 10.0 °F -0.9 °F 7.0 °F 87% 30.19 in 3.0 mi WSW 6.9 mph - N/A   Overcast
11:19 AM 10.0 °F -0.9 °F 6.1 °F 84% 30.05 in 9.0 mi WSW 6.9 mph - N/A   Scattered Clouds
11:52 AM 10.9 °F 1.4 °F 6.1 °F 81% 30.17 in 10.0 mi WSW 5.8 mph - N/A   Clear
12:52 PM 12.9 °F 3.8 °F 7.0 °F 77% 30.12 in 10.0 mi WSW 5.8 mph - N/A   Clear
1:52 PM 15.1 °F 5.2 °F 7.0 °F 70% 30.10 in 10.0 mi WSW 6.9 mph - N/A   Clear
2:52 PM 16.0 °F 5.3 °F 7.0 °F 68% 30.08 in 10.0 mi WSW 8.1 mph - N/A   Clear
3:52 PM 15.1 °F 5.2 °F 8.1 °F 74% 30.06 in 10.0 mi WSW 6.9 mph - N/A   Clear
4:52 PM 15.1 °F 9.4 °F 8.1 °F 74% 30.04 in 10.0 mi West 3.5 mph - N/A   Clear
5:52 PM 15.1 °F 7.7 °F 9.0 °F 77% 30.05 in 10.0 mi WSW 4.6 mph - N/A   Clear
6:52 PM 17.1 °F 11.7 °F 10.9 °F 77% 30.04 in 2.5 mi West 3.5 mph - 0.00 in Snow Light Snow
7:34 PM 18.0 °F 12.7 °F 14.0 °F 84% 29.92 in 2.5 mi WSW 3.5 mph - 0.01 in Snow Light Snow
7:52 PM 18.0 °F 12.7 °F 15.1 °F 88% 30.03 in 2.5 mi SW 3.5 mph - 0.01 in Snow Light Snow
7:59 PM 19.0 °F 12.3 °F 16.0 °F 88% 29.92 in 3.0 mi SW 4.6 mph - 0.00 in Snow Light Snow
8:17 PM 19.9 °F 13.4 °F 18.0 °F 92% 29.91 in 1.8 mi WSW 4.6 mph - 0.01 in Snow Light Snow
8:27 PM 21.0 °F 13.4 °F 18.0 °F 88% 29.91 in 1.5 mi West 5.8 mph - 0.01 in Snow Light Snow
8:52 PM 23.0 °F 13.1 °F 19.9 °F 88% 30.01 in 1.8 mi West 9.2 mph - 0.02 in Snow Light Snow
8:57 PM 23.0 °F 13.1 °F 21.0 °F 92% 29.91 in 3.0 mi West 9.2 mph - 0.00 in Snow Light Snow
9:52 PM 28.9 °F 18.2 °F 24.1 °F 82% 29.99 in 10.0 mi WNW 13.8 mph - 0.00 in   Overcast
10:52 PM 28.9 °F 18.2 °F 24.1 °F 82% 29.99 in 10.0 mi WNW 13.8 mph - N/A   Overcast
11:17 PM 28.0 °F 17.0 °F 23.0 °F 81% 29.90 in 10.0 mi WNW 13.8 mph - N/A   Mostly Cloudy
11:52 PM 28.0 °F 18.6 °F 21.9 °F 78% 30.00 in 10.0 mi WNW 10.4 mph - N/A   Mostly Cloudy